DW3478 Weather Reports


Display with metric or nautical units.
time (UTC)temp
F
wind
direction
speed
MPH
gust
MPH
rain 1hr
in
rain 24hr
in
rain mn
in
humidity
%
barometer
mb
20220706163804 70 215 5.0 9.0 0.00 0.00 0.00 58 1021.3
20220706162805 70 173 4.0 7.0 0.00 0.00 0.00 58 1021.3
20220706155805 72 192 3.0 9.0 0.00 0.00 0.00 54 1021.2
20220706154805 71 220 4.0 9.0 0.00 0.00 0.00 56 1021.1
20220706153805 71 195 4.0 7.0 0.00 0.00 0.00 56 1021.2
20220706153305 71 203 5.0 7.0 0.00 0.00 0.00 56 1021.2
20220706152308 71 222 4.0 8.0 0.00 0.00 0.00 55 1021.3
20220706150804 71 205 5.0 10.0 0.00 0.00 0.00 57 1021.4
20220706145305 71 202 6.0 9.0 0.00 0.00 0.00 55 1021.4
20220706144806 72 210 6.0 12.0 0.00 0.00 0.00 54 1021.4
20220706142805 72 242 3.0 7.0 0.00 0.00 0.00 54 1021.5
20220706142305 72 246 5.0 10.0 0.00 0.00 0.00 54 1021.5
20220706140805 72 234 5.0 10.0 0.00 0.00 0.00 53 1021.7
20220706140305 71 202 5.0 12.0 0.00 0.00 0.00 54 1021.7
20220706134305 73 244 4.0 8.0 0.00 0.00 0.00 52 1021.6
20220706133804 73 270 4.0 12.0 0.00 0.00 0.00 53 1021.7
20220706133305 72 224 5.0 9.0 0.00 0.00 0.00 53 1021.6
20220706132805 71 215 5.0 9.0 0.00 0.00 0.00 55 1021.8
20220706132304 71 213 5.0 9.0 0.00 0.00 0.00 56 1021.7
20220706131805 70 207 3.0 7.0 0.00 0.00 0.00 55 1021.8
20220706131304 71 207 5.0 9.0 0.00 0.00 0.00 54 1022.0
20220706130304 71 225 3.0 7.0 0.00 0.00 0.00 55 1022.0
20220706125805 71 231 5.0 7.0 0.00 0.00 0.00 55 1022.0
20220706125304 71 203 5.0 10.0 0.00 0.00 0.00 56 1021.9
20220706124805 71 199 3.0 6.0 0.00 0.00 0.00 56 1022.0
20220706123805 71 232 5.0 9.0 0.00 0.00 0.00 56 1022.2
20220706123305 71 209 7.0 12.0 0.00 0.00 0.00 56 1022.1
20220706122804 71 224 6.0 10.0 0.00 0.00 0.00 56 1022.1
20220706121804 71 211 8.0 12.0 0.00 0.00 0.00 56 1022.1
20220706115304 71 198 4.0 7.0 0.00 0.00 0.00 56 1022.0
20220706114304 71 211 3.0 7.0 0.00 0.00 0.00 55 1022.0
20220706112308 70 258 3.0 6.0 0.00 0.00 0.00 56 1021.9
20220706111306 71 209 3.0 7.0 0.00 0.00 0.00 55 1021.8
20220706104305 71 223 5.0 7.0 0.00 0.00 0.00 54 1021.9
20220706103305 70 207 3.0 6.0 0.00 0.00 0.00 54 1021.8
20220706102304 70 246 3.0 5.0 0.00 0.00 0.00 54 1021.7
20220706101305 70 263 4.0 6.0 0.00 0.00 0.00 56 1021.6
20220706100306 70 185 5.0 7.0 0.00 0.00 0.00 56 1021.6
20220706095804 69 226 5.0 7.0 0.00 0.00 0.00 55 1021.6
20220706094304 70 214 4.0 6.0 0.00 0.00 0.00 55 1021.5
20220706093304 69 215 3.0 5.0 0.00 0.00 0.00 56 1021.5
20220706092304 69 233 3.0 5.0 0.00 0.00 0.00 56 1021.5
20220706091805 69 220 3.0 5.0 0.00 0.00 0.00 56 1021.5
20220706090304 69 221 3.0 5.0 0.00 0.00 0.00 56 1021.5
20220706085805 69 255 3.0 7.0 0.00 0.00 0.00 55 1021.5
20220706083806 67 164 2.0 3.0 0.00 0.00 0.00 58 1021.6
20220706083307 67 114 2.0 3.0 0.00 0.00 0.00 58 1021.6
20220706082805 67 107 2.0 3.0 0.00 0.00 0.00 58 1021.5
20220706082304 67 165 2.0 3.0 0.00 0.00 0.00 59 1021.5
20220706080805 66 1 1.0 6.0 0.00 0.00 0.00 59 1021.5
20220706074305 66 96 2.0 3.0 0.00 0.00 0.00 60 1021.3
20220706071806 65 76 3.0 3.0 0.00 0.00 0.00 62 1021.1
20220706064304 64 26 2.0 3.0 0.00 0.00 0.00 62 1021.0
20220706063804 64 37 3.0 5.0 0.00 0.00 0.00 62 1020.9
20220706062804 64 36 2.0 3.0 0.00 0.00 0.00 62 1020.9
20220706062305 64 27 2.0 5.0 0.00 0.00 0.00 62 1021.0
20220706061804 64 29 3.0 3.0 0.00 0.00 0.00 62 1020.9
20220706060804 64 90 4.0 5.0 0.00 0.00 0.00 61 1021.0
20220706060305 64 35 2.0 3.0 0.00 0.00 0.00 61 1020.9
20220706055304 64 45 3.0 3.0 0.00 0.00 0.00 61 1020.8
20220706054305 64 84 2.0 3.0 0.00 0.00 0.00 61 1020.7
20220706053305 65 37 3.0 3.0 0.00 0.00 0.00 61 1020.8
20220706052304 65 35 2.0 3.0 0.00 0.00 0.00 60 1020.8
20220706050805 64 48 3.0 5.0 0.00 0.00 0.00 60 1020.8
20220706045806 64 48 2.0 3.0 0.00 0.00 0.00 60 1020.9
20220706043804 65 29 5.0 8.0 0.00 0.00 0.00 60 1021.0
20220706040304 65 58 3.0 5.0 0.00 0.00 0.00 59 1021.3
20220706035304 65 40 3.0 5.0 0.00 0.00 0.00 59 1021.3
20220706033805 65 34 4.0 6.0 0.00 0.00 0.00 59 1021.2
20220706033305 65 47 4.0 6.0 0.00 0.00 0.00 59 1021.2
20220706032304 65 36 3.0 6.0 0.00 0.00 0.00 60 1021.1
20220706031305 65 32 3.0 6.0 0.00 0.00 0.00 59 1021.1
20220706030805 65 42 3.0 6.0 0.00 0.00 0.00 60 1021.1
20220706030305 65 42 3.0 5.0 0.00 0.00 0.00 60 1021.1
20220706024305 65 30 3.0 6.0 0.00 0.00 0.00 58 1021.2
20220706023306 65 22 4.0 5.0 0.00 0.00 0.00 58 1021.2
20220706020305 65 37 4.0 7.0 0.00 0.00 0.00 59 1021.4
20220706015304 65 20 4.0 7.0 0.00 0.00 0.00 59 1021.4
20220706014304 65 34 3.0 7.0 0.00 0.00 0.00 59 1021.5
20220706013804 65 28 3.0 7.0 0.00 0.00 0.00 59 1021.5
20220706013304 65 36 5.0 6.0 0.00 0.00 0.00 60 1021.6
20220706012304 64 26 6.0 9.0 0.00 0.00 0.00 59 1021.7
20220706011804 64 50 5.0 10.0 0.00 0.00 0.00 59 1021.6
20220706010804 64 35 6.0 9.0 0.00 0.00 0.00 59 1021.7
20220706010305 64 31 6.0 10.0 0.00 0.00 0.00 59 1021.8
20220706005804 64 31 6.0 10.0 0.00 0.00 0.00 59 1021.8
20220706004804 64 43 6.0 9.0 0.00 0.00 0.00 59 1021.8
20220706004304 64 45 6.0 10.0 0.00 0.00 0.00 59 1021.9
20220706003804 64 39 5.0 9.0 0.00 0.00 0.00 59 1022.0
20220706003306 64 36 6.0 9.0 0.00 0.00 0.00 59 1022.0
20220706001804 64 38 5.0 6.0 0.00 0.00 0.00 60 1022.1
20220706001305 64 42 5.0 6.0 0.00 0.00 0.00 60 1022.1
20220706000804 64 30 3.0 5.0 0.00 0.00 0.00 60 1022.2
20220706000305 64 45 3.0 6.0 0.00 0.00 0.00 60 1022.2
20220705234806 64 30 5.0 6.0 0.00 0.00 0.00 59 1022.2
20220705234304 64 48 5.0 6.0 0.00 0.00 0.00 60 1022.2
20220705231305 64 35 5.0 8.0 0.00 0.00 0.00 60 1022.3
20220705230820 64 30 5.0 6.0 0.00 0.00 0.00 61 1022.3
20220705225805 64 33 3.0 5.0 0.00 0.00 0.00 62 1022.4
20220705224806 64 27 3.0 5.0 0.00 0.00 0.00 61 1022.4
20220705223804 64 28 4.0 6.0 0.00 0.00 0.00 60 1022.2
20220705222804 64 30 5.0 6.0 0.00 0.00 0.00 60 1022.2
20220705221805 65 42 5.0 7.0 0.00 0.00 0.00 59 1022.2
20220705221304 65 9 3.0 6.0 0.00 0.00 0.00 59 1022.3
20220705220305 65 43 3.0 6.0 0.00 0.00 0.00 59 1022.2
20220705215304 65 48 5.0 7.0 0.00 0.00 0.00 59 1022.2
20220705214805 65 41 4.0 6.0 0.00 0.00 0.00 59 1022.1
20220705212804 65 37 2.0 6.0 0.00 0.00 0.00 60 1022.0
20220705212304 65 60 3.0 5.0 0.00 0.00 0.00 61 1021.9
20220705211305 66 76 2.0 3.0 0.00 0.00 0.00 61 1021.7
20220705210305 66 9 1.0 2.0 0.00 0.00 0.00 62 1021.7
20220705205805 66 346 0.0 2.0 0.00 0.00 0.00 63 1021.6
20220705204805 67 171 0.0 1.0 0.00 0.00 0.00 63 1021.5
20220705203804 67 171 0.0 1.0 0.00 0.00 0.00 63 1021.5
20220705203306 67 171 1.0 2.0 0.00 0.00 0.00 63 1021.5
20220705200307 67 194 3.0 5.0 0.00 0.00 0.00 63 1021.3
20220705191804 68 233 3.0 5.0 0.00 0.00 0.00 61 1021.1
20220705191305 68 208 2.0 3.0 0.00 0.00 0.00 61 1021.1
20220705190807 68 200 2.0 3.0 0.00 0.00 0.00 61 1021.1
20220705185805 68 210 3.0 5.0 0.00 0.00 0.00 61 1021.2
20220705184305 68 246 3.0 6.0 0.00 0.00 0.00 60 1021.0
20220705182805 69 210 3.0 6.0 0.00 0.00 0.00 60 1020.9
20220705182305 69 192 5.0 7.0 0.00 0.00 0.00 58 1020.9
20220705180805 70 238 4.0 7.0 0.00 0.00 0.00 58 1020.9
20220705180305 69 235 3.0 7.0 0.00 0.00 0.00 58 1020.8
20220705175805 69 225 5.0 9.0 0.00 0.00 0.00 58 1020.8
20220705174304 70 254 5.0 8.0 0.00 0.00 0.00 58 1020.9
20220705173804 70 253 3.0 10.0 0.00 0.00 0.00 58 1020.9
20220705172804 70 226 5.0 7.0 0.00 0.00 0.00 58 1021.0
20220705172304 69 222 5.0 9.0 0.00 0.00 0.00 58 1021.0
20220705171805 70 221 5.0 9.0 0.00 0.00 0.00 57 1021.0
20220705170804 70 253 6.0 9.0 0.00 0.00 0.00 56 1021.0